TimePST,TemperatureF,Dew PointF,Humidity,Sea Level PressureIn,VisibilityMPH,Wind Direction,Wind SpeedMPH,Gust SpeedMPH,PrecipitationIn,Events,Conditions,WindDirDegrees,DateUTC
12:53 AM,46.9,33.1,59,30.09,10.0,West,6.9,-,N/A,,Clear,280,2013-01-09 08:53:00
1:53 AM,46.0,33.1,61,30.09,10.0,Calm,Calm,-,N/A,,Clear,0,2013-01-09 09:53:00
2:53 AM,46.9,32.0,56,30.09,10.0,West,5.8,-,N/A,,Clear,280,2013-01-09 10:53:00
3:53 AM,46.9,33.1,59,30.09,10.0,West,6.9,-,N/A,,Clear,270,2013-01-09 11:53:00
4:53 AM,46.0,32.0,58,30.09,10.0,WSW,5.8,-,N/A,,Clear,250,2013-01-09 12:53:00
5:53 AM,48.0,30.9,52,30.11,10.0,SW,5.8,-,N/A,,Clear,220,2013-01-09 13:53:00
6:53 AM,50.0,30.9,48,30.12,10.0,West,6.9,-,N/A,,Clear,280,2013-01-09 14:53:00
7:53 AM,48.9,33.1,54,30.15,10.0,SSE,3.5,-,N/A,,Clear,150,2013-01-09 15:53:00
8:53 AM,55.9,34.0,44,30.16,10.0,South,3.5,-,N/A,,Clear,180,2013-01-09 16:53:00
9:53 AM,60.1,37.0,42,30.15,10.0,WSW,3.5,-,N/A,,Clear,240,2013-01-09 17:53:00
10:53 AM,66.9,37.0,33,30.12,10.0,Calm,Calm,-,N/A,,Clear,0,2013-01-09 18:53:00
11:53 AM,71.1,34.0,26,30.09,10.0,South,3.5,-,N/A,,Clear,170,2013-01-09 19:53:00
12:53 PM,73.0,30.9,21,30.06,10.0,ESE,3.5,-,N/A,,Clear,120,2013-01-09 20:53:00
1:53 PM,73.9,28.9,19,30.04,10.0,Calm,Calm,-,N/A,,Clear,0,2013-01-09 21:53:00
2:53 PM,73.9,28.9,19,30.02,10.0,ESE,3.5,-,N/A,,Clear,110,2013-01-09 22:53:00
3:53 PM,73.0,30.0,20,30.00,10.0,East,4.6,-,N/A,,Clear,100,2013-01-09 23:53:00
4:53 PM,71.1,30.0,22,29.99,10.0,Calm,Calm,-,N/A,,Clear,0,2013-01-10 00:53:00
5:53 PM,64.9,30.0,27,29.97,10.0,SSE,4.6,-,N/A,,Clear,160,2013-01-10 01:53:00
6:53 PM,55.9,32.0,40,29.97,10.0,Calm,Calm,-,N/A,,Clear,0,2013-01-10 02:53:00
7:53 PM,55.0,34.0,45,29.97,10.0,Calm,Calm,-,N/A,,Clear,0,2013-01-10 03:53:00
8:53 PM,55.9,32.0,40,29.96,10.0,Calm,Calm,-,N/A,,Clear,0,2013-01-10 04:53:00
9:53 PM,51.1,36.0,56,29.94,10.0,Calm,Calm,-,N/A,,Clear,0,2013-01-10 05:53:00
10:53 PM,50.0,35.1,57,29.94,10.0,West,5.8,-,N/A,,Clear,270,2013-01-10 06:53:00
11:53 PM,51.1,37.0,59,29.93,10.0,Calm,Calm,-,N/A,,Clear,0,2013-01-10 07:53:00